Year,Month,Day,Hour,Minute,Value (Times are PST for temperature in C)
2016,08,12,00,00,22.30
2016,08,12,00,01,22.30
2016,08,12,00,02,22.30
2016,08,12,00,03,22.30
2016,08,12,00,04,22.20
2016,08,12,00,05,22.20
2016,08,12,00,06,22.20
2016,08,12,00,07,22.20
2016,08,12,00,08,22.20
2016,08,12,00,09,22.10
2016,08,12,00,10,22.10
2016,08,12,00,11,22.10
2016,08,12,00,12,22.10
2016,08,12,00,13,22.00
2016,08,12,00,14,22.00
2016,08,12,00,15,21.90
2016,08,12,00,16,21.90
2016,08,12,00,17,21.90
2016,08,12,00,18,21.80
2016,08,12,00,19,21.80
2016,08,12,00,20,21.80
2016,08,12,00,21,21.80
2016,08,12,00,22,21.80
2016,08,12,00,23,21.70
2016,08,12,00,24,21.70
2016,08,12,00,25,21.70
2016,08,12,00,26,21.60
2016,08,12,00,27,21.60
2016,08,12,00,28,21.60
2016,08,12,00,29,21.50
2016,08,12,00,30,21.50
2016,08,12,00,31,21.50
2016,08,12,00,32,21.40
2016,08,12,00,33,21.40
2016,08,12,00,34,21.40
2016,08,12,00,35,21.40
2016,08,12,00,36,21.30
2016,08,12,00,37,21.30
2016,08,12,00,38,21.30
2016,08,12,00,39,21.30
2016,08,12,00,40,21.20
2016,08,12,00,41,21.20
2016,08,12,00,42,21.20
2016,08,12,00,43,21.20
2016,08,12,00,44,21.10
2016,08,12,00,45,21.10
2016,08,12,00,46,21.10
2016,08,12,00,47,21.10
2016,08,12,00,48,21.10
2016,08,12,00,49,21.00
2016,08,12,00,50,21.00
2016,08,12,00,51,21.00
2016,08,12,00,52,20.90
2016,08,12,00,53,20.90
2016,08,12,00,54,20.90
2016,08,12,00,55,20.90
2016,08,12,00,56,20.90
2016,08,12,00,57,20.90
2016,08,12,00,58,20.90
2016,08,12,00,59,20.80
2016,08,12,01,00,20.80
2016,08,12,01,01,20.80
2016,08,12,01,02,20.80
2016,08,12,01,03,20.80
2016,08,12,01,04,20.80
2016,08,12,01,05,20.80
2016,08,12,01,06,20.80
2016,08,12,01,07,20.70
2016,08,12,01,08,20.70
2016,08,12,01,09,20.70
2016,08,12,01,10,20.70
2016,08,12,01,11,20.60
2016,08,12,01,12,20.60
2016,08,12,01,13,20.60
2016,08,12,01,14,20.60
2016,08,12,01,15,20.60
2016,08,12,01,16,20.60
2016,08,12,01,17,20.60
2016,08,12,01,18,20.50
2016,08,12,01,19,20.50
2016,08,12,01,20,20.50
2016,08,12,01,21,20.40
2016,08,12,01,22,20.40
2016,08,12,01,23,20.40
2016,08,12,01,24,20.40
2016,08,12,01,25,20.40
2016,08,12,01,26,20.30
2016,08,12,01,27,20.30
2016,08,12,01,28,20.30
2016,08,12,01,29,20.30
2016,08,12,01,30,20.30
2016,08,12,01,31,20.30
2016,08,12,01,32,20.30
2016,08,12,01,33,20.30
2016,08,12,01,34,20.30
2016,08,12,01,35,20.30
2016,08,12,01,36,20.30
2016,08,12,01,37,20.30
2016,08,12,01,38,20.30
2016,08,12,01,39,20.30
2016,08,12,01,40,20.30
2016,08,12,01,41,20.30
2016,08,12,01,42,20.30
2016,08,12,01,43,20.20
2016,08,12,01,44,20.20
2016,08,12,01,45,20.20
2016,08,12,01,46,20.20
2016,08,12,01,47,20.20
2016,08,12,01,48,20.20
2016,08,12,01,49,20.20
2016,08,12,01,50,20.10
2016,08,12,01,51,20.10
2016,08,12,01,52,20.10
2016,08,12,01,53,20.10
2016,08,12,01,54,20.10
2016,08,12,01,55,20.00
2016,08,12,01,56,20.00
2016,08,12,01,57,20.00
2016,08,12,01,58,19.90
2016,08,12,01,59,19.90
2016,08,12,02,00,19.90
2016,08,12,02,01,19.90
2016,08,12,02,02,19.90
2016,08,12,02,03,19.80
2016,08,12,02,04,19.80
2016,08,12,02,05,19.80
2016,08,12,02,06,19.80
2016,08,12,02,07,19.80
2016,08,12,02,08,19.80
2016,08,12,02,09,19.70
2016,08,12,02,10,19.70
2016,08,12,02,11,19.70
2016,08,12,02,12,19.70
2016,08,12,02,13,19.70
2016,08,12,02,14,19.70
2016,08,12,02,15,19.60
2016,08,12,02,16,19.60
2016,08,12,02,17,19.60
2016,08,12,02,18,19.60
2016,08,12,02,19,19.60
2016,08,12,02,20,19.60
2016,08,12,02,21,19.60
2016,08,12,02,22,19.60
2016,08,12,02,23,19.60
2016,08,12,02,24,19.50
2016,08,12,02,25,19.50
2016,08,12,02,26,19.50
2016,08,12,02,27,19.50
2016,08,12,02,28,19.50
2016,08,12,02,29,19.50
2016,08,12,02,30,19.50
2016,08,12,02,31,19.50
2016,08,12,02,32,19.50
2016,08,12,02,33,19.50
2016,08,12,02,34,19.50
2016,08,12,02,35,19.40
2016,08,12,02,36,19.40
2016,08,12,02,37,19.40
2016,08,12,02,38,19.40
2016,08,12,02,39,19.40
2016,08,12,02,40,19.40
2016,08,12,02,41,19.40
2016,08,12,02,42,19.40
2016,08,12,02,43,19.40
2016,08,12,02,44,19.40
2016,08,12,02,45,19.40
2016,08,12,02,46,19.40
2016,08,12,02,47,19.40
2016,08,12,02,48,19.40
2016,08,12,02,49,19.40
2016,08,12,02,50,19.40
2016,08,12,02,51,19.30
2016,08,12,02,52,19.30
2016,08,12,02,53,19.30
2016,08,12,02,54,19.30
2016,08,12,02,55,19.30
2016,08,12,02,56,19.30
2016,08,12,02,57,19.30
2016,08,12,02,58,19.30
2016,08,12,02,59,19.30
2016,08,12,03,00,19.30
2016,08,12,03,01,19.30
2016,08,12,03,02,19.30
2016,08,12,03,03,19.30
2016,08,12,03,04,19.30
2016,08,12,03,05,19.30
2016,08,12,03,06,19.30
2016,08,12,03,07,19.30
2016,08,12,03,08,19.30
2016,08,12,03,09,19.20
2016,08,12,03,10,19.20
2016,08,12,03,11,19.20
2016,08,12,03,12,19.20
2016,08,12,03,13,19.20
2016,08,12,03,14,19.20
2016,08,12,03,15,19.20
2016,08,12,03,16,19.20
2016,08,12,03,17,19.20
2016,08,12,03,18,19.20
2016,08,12,03,19,19.20
2016,08,12,03,20,19.20
2016,08,12,03,21,19.20
2016,08,12,03,22,19.20
2016,08,12,03,23,19.20
2016,08,12,03,24,19.20
2016,08,12,03,25,19.20
2016,08,12,03,26,19.20
2016,08,12,03,27,19.10
2016,08,12,03,28,19.10
2016,08,12,03,29,19.10
2016,08,12,03,30,19.10
2016,08,12,03,31,19.10
2016,08,12,03,32,19.10
2016,08,12,03,33,19.10
2016,08,12,03,34,19.10
2016,08,12,03,35,19.10
2016,08,12,03,36,19.10
2016,08,12,03,37,19.10
2016,08,12,03,38,19.10
2016,08,12,03,39,19.10
2016,08,12,03,40,19.10
2016,08,12,03,41,19.10
2016,08,12,03,42,19.10
2016,08,12,03,43,19.10
2016,08,12,03,44,19.10
2016,08,12,03,45,19.10
2016,08,12,03,46,19.10
2016,08,12,03,47,19.10
2016,08,12,03,48,19.10
2016,08,12,03,49,19.10
2016,08,12,03,50,19.10
2016,08,12,03,51,19.00
2016,08,12,03,52,19.00
2016,08,12,03,53,19.00
2016,08,12,03,54,19.00
2016,08,12,03,55,19.00
2016,08,12,03,56,19.00
2016,08,12,03,57,19.00
2016,08,12,03,58,19.00
2016,08,12,03,59,19.00
2016,08,12,04,00,18.90
2016,08,12,04,01,18.90
2016,08,12,04,02,18.90
2016,08,12,04,03,18.90
2016,08,12,04,04,18.90
2016,08,12,04,05,18.90
2016,08,12,04,06,18.90
2016,08,12,04,07,18.90
2016,08,12,04,08,18.80
2016,08,12,04,09,18.80
2016,08,12,04,10,18.80
2016,08,12,04,11,18.80
2016,08,12,04,12,18.80
2016,08,12,04,13,18.80
2016,08,12,04,14,18.80
2016,08,12,04,15,18.80
2016,08,12,04,16,18.80
2016,08,12,04,17,18.90
2016,08,12,04,18,18.90
2016,08,12,04,19,18.90
2016,08,12,04,20,19.00
2016,08,12,04,21,19.00
2016,08,12,04,22,19.10
2016,08,12,04,23,19.10
2016,08,12,04,24,19.10
2016,08,12,04,25,19.20
2016,08,12,04,26,19.20
2016,08,12,04,27,19.20
2016,08,12,04,28,19.20
2016,08,12,04,29,19.30
2016,08,12,04,30,19.30
2016,08,12,04,31,19.30
2016,08,12,04,32,19.30
2016,08,12,04,33,19.30
2016,08,12,04,34,19.30
2016,08,12,04,35,19.40
2016,08,12,04,36,19.40
2016,08,12,04,37,19.40
2016,08,12,04,38,19.40
2016,08,12,04,39,19.50
2016,08,12,04,40,19.50
2016,08,12,04,41,19.50
2016,08,12,04,42,19.50
2016,08,12,04,43,19.60
2016,08,12,04,44,19.60
2016,08,12,04,45,19.70
2016,08,12,04,46,19.70
2016,08,12,04,47,19.70
2016,08,12,04,48,19.70
2016,08,12,04,49,19.70
2016,08,12,04,50,19.80
2016,08,12,04,51,19.80
2016,08,12,04,52,19.80
2016,08,12,04,53,19.80
2016,08,12,04,54,19.80
2016,08,12,04,55,19.80
2016,08,12,04,56,19.80
2016,08,12,04,57,19.80
2016,08,12,04,58,19.80
2016,08,12,04,59,19.80
2016,08,12,05,00,19.80
2016,08,12,05,01,19.70
2016,08,12,05,02,19.70
2016,08,12,05,03,19.70
2016,08,12,05,04,19.70
2016,08,12,05,05,19.70
2016,08,12,05,06,19.60
2016,08,12,05,07,19.60
2016,08,12,05,08,19.60
2016,08,12,05,09,19.60
2016,08,12,05,10,19.50
2016,08,12,05,11,19.50
2016,08,12,05,12,19.40
2016,08,12,05,13,19.40
2016,08,12,05,14,19.40
2016,08,12,05,15,19.40
2016,08,12,05,16,19.40
2016,08,12,05,17,19.30
2016,08,12,05,18,19.30
2016,08,12,05,19,19.30
2016,08,12,05,20,19.30
2016,08,12,05,21,19.30
2016,08,12,05,22,19.30
2016,08,12,05,23,19.30
2016,08,12,05,24,19.30
2016,08,12,05,25,19.30
2016,08,12,05,26,19.20
2016,08,12,05,27,19.20
2016,08,12,05,28,19.20
2016,08,12,05,29,19.20
2016,08,12,05,30,19.20
2016,08,12,05,31,19.20
2016,08,12,05,32,19.20
2016,08,12,05,33,19.20
2016,08,12,05,34,19.20
2016,08,12,05,35,19.20
2016,08,12,05,36,19.20
2016,08,12,05,37,19.20
2016,08,12,05,38,19.20
2016,08,12,05,39,19.20
2016,08,12,05,40,19.20
2016,08,12,05,41,19.20
2016,08,12,05,42,19.20
2016,08,12,05,43,19.10
2016,08,12,05,44,19.10
2016,08,12,05,45,19.10
2016,08,12,05,46,19.10
2016,08,12,05,47,19.10
2016,08,12,05,48,19.10
2016,08,12,05,49,19.10
2016,08,12,05,50,19.20
2016,08,12,05,51,19.20
2016,08,12,05,52,19.20
2016,08,12,05,53,19.20
2016,08,12,05,54,19.20
2016,08,12,05,55,19.20
2016,08,12,05,56,19.20
2016,08,12,05,57,19.20
2016,08,12,05,58,19.30
2016,08,12,05,59,19.30
2016,08,12,06,00,19.30
2016,08,12,06,01,19.30
2016,08,12,06,02,19.20
2016,08,12,06,03,19.20
2016,08,12,06,04,19.20
2016,08,12,06,05,19.10
2016,08,12,06,06,19.10
2016,08,12,06,07,19.10
2016,08,12,06,08,19.00
2016,08,12,06,09,19.00
2016,08,12,06,10,18.90
2016,08,12,06,11,18.90
2016,08,12,06,12,18.90
2016,08,12,06,13,18.90
2016,08,12,06,14,18.90
2016,08,12,06,15,18.90
2016,08,12,06,16,18.80
2016,08,12,06,17,18.80
2016,08,12,06,18,18.80
2016,08,12,06,19,18.80
2016,08,12,06,20,18.80
2016,08,12,06,21,18.80
2016,08,12,06,22,18.80
2016,08,12,06,23,18.80
2016,08,12,06,24,18.80
2016,08,12,06,25,18.80
2016,08,12,06,26,18.80
2016,08,12,06,27,18.80
2016,08,12,06,28,18.80
2016,08,12,06,29,18.80
2016,08,12,06,30,18.80
2016,08,12,06,31,18.80
2016,08,12,06,32,18.70
2016,08,12,06,33,18.70
2016,08,12,06,34,18.70
2016,08,12,06,35,18.70
2016,08,12,06,36,18.70
2016,08,12,06,37,18.70
2016,08,12,06,38,18.70
2016,08,12,06,39,18.70
2016,08,12,06,40,18.70
2016,08,12,06,41,18.80
2016,08,12,06,42,18.80
2016,08,12,06,43,18.80
2016,08,12,06,44,18.80
2016,08,12,06,45,18.80
2016,08,12,06,46,18.90
2016,08,12,06,47,18.90
2016,08,12,06,48,18.90
2016,08,12,06,49,18.90
2016,08,12,06,50,18.90
2016,08,12,06,51,18.90
2016,08,12,06,52,18.80
2016,08,12,06,53,18.80
2016,08,12,06,54,18.80
2016,08,12,06,55,18.80
2016,08,12,06,56,18.80
2016,08,12,06,57,18.80
2016,08,12,06,58,18.80
2016,08,12,06,59,18.80
2016,08,12,07,00,18.80
2016,08,12,07,01,18.80
2016,08,12,07,02,18.70
2016,08,12,07,03,18.70
2016,08,12,07,04,18.70
2016,08,12,07,05,18.70
2016,08,12,07,06,18.70
2016,08,12,07,07,18.70
2016,08,12,07,08,18.70
2016,08,12,07,09,18.70
2016,08,12,07,10,18.70
2016,08,12,07,11,18.70
2016,08,12,07,12,18.70
2016,08,12,07,13,18.70
2016,08,12,07,14,18.70
2016,08,12,07,15,18.70
2016,08,12,07,16,18.70
2016,08,12,07,17,18.70
2016,08,12,07,18,18.70
2016,08,12,07,19,18.70
2016,08,12,07,20,18.70
2016,08,12,07,21,18.70
2016,08,12,07,22,18.60
2016,08,12,07,23,18.60
2016,08,12,07,24,18.60
2016,08,12,07,25,18.60
2016,08,12,07,26,18.60
2016,08,12,07,27,18.60
2016,08,12,07,28,18.60
2016,08,12,07,29,18.60
2016,08,12,07,30,18.60
2016,08,12,07,31,18.60
2016,08,12,07,32,18.60
2016,08,12,07,33,18.60
2016,08,12,07,34,18.60
2016,08,12,07,35,18.50
2016,08,12,07,36,18.50
2016,08,12,07,37,18.50
2016,08,12,07,38,18.50
2016,08,12,07,39,18.50
2016,08,12,07,40,18.50
2016,08,12,07,41,18.50
2016,08,12,07,42,18.50
2016,08,12,07,43,18.50
2016,08,12,07,44,18.50
2016,08,12,07,45,18.50
2016,08,12,07,46,18.60
2016,08,12,07,47,18.60
2016,08,12,07,48,18.60
2016,08,12,07,49,18.60
2016,08,12,07,50,18.60
2016,08,12,07,51,18.60
2016,08,12,07,52,18.60
2016,08,12,07,53,18.70
2016,08,12,07,54,18.70
2016,08,12,07,55,18.70
2016,08,12,07,56,18.70
2016,08,12,07,57,18.80
2016,08,12,07,58,18.80
2016,08,12,07,59,18.80
2016,08,12,08,00,18.80
2016,08,12,08,01,18.80
2016,08,12,08,02,18.90
2016,08,12,08,03,18.90
2016,08,12,08,04,18.90
2016,08,12,08,05,18.90
2016,08,12,08,06,19.00
2016,08,12,08,07,19.00
2016,08,12,08,08,19.10
2016,08,12,08,09,19.10
2016,08,12,08,10,19.10
2016,08,12,08,11,19.10
2016,08,12,08,12,19.10
2016,08,12,08,13,19.20
2016,08,12,08,14,19.20
2016,08,12,08,15,19.20
2016,08,12,08,16,19.20
2016,08,12,08,17,19.20
2016,08,12,08,18,19.20
2016,08,12,08,19,19.20
2016,08,12,08,20,19.20
2016,08,12,08,21,19.30
2016,08,12,08,22,19.30
2016,08,12,08,23,19.30
2016,08,12,08,24,19.40
2016,08,12,08,25,19.40
2016,08,12,08,26,19.40
2016,08,12,08,27,19.50
2016,08,12,08,28,19.50
2016,08,12,08,29,19.60
2016,08,12,08,30,19.60
2016,08,12,08,31,19.70
2016,08,12,08,32,19.70
2016,08,12,08,33,19.70
2016,08,12,08,34,19.70
2016,08,12,08,35,19.70
2016,08,12,08,36,19.80
2016,08,12,08,37,19.80
2016,08,12,08,38,19.80
2016,08,12,08,39,19.90
2016,08,12,08,40,19.90
2016,08,12,08,41,19.90
2016,08,12,08,42,19.90
2016,08,12,08,43,19.90
2016,08,12,08,44,20.00
2016,08,12,08,45,20.00
2016,08,12,08,46,20.10
2016,08,12,08,47,20.10
2016,08,12,08,48,20.20
2016,08,12,08,49,20.20
2016,08,12,08,50,20.20
2016,08,12,08,51,20.30
2016,08,12,08,52,20.30
2016,08,12,08,53,20.30
2016,08,12,08,54,20.30
2016,08,12,08,55,20.30
2016,08,12,08,56,20.30
2016,08,12,08,57,20.40
2016,08,12,08,58,20.40
2016,08,12,08,59,20.40
2016,08,12,09,00,20.50
2016,08,12,09,01,20.50
2016,08,12,09,02,20.60
2016,08,12,09,03,20.60
2016,08,12,09,04,20.60
2016,08,12,09,05,20.70
2016,08,12,09,06,20.70
2016,08,12,09,07,20.70
2016,08,12,09,08,20.70
2016,08,12,09,09,20.70
2016,08,12,09,10,20.70
2016,08,12,09,11,20.80
2016,08,12,09,12,20.80
2016,08,12,09,13,20.80
2016,08,12,09,14,20.80
2016,08,12,09,15,20.80
2016,08,12,09,16,20.80
2016,08,12,09,17,20.80
2016,08,12,09,18,20.90
2016,08,12,09,19,20.90
2016,08,12,09,20,20.90
2016,08,12,09,21,20.90
2016,08,12,09,22,20.90
2016,08,12,09,23,21.00
2016,08,12,09,24,21.00
2016,08,12,09,25,21.10
2016,08,12,09,26,21.10
2016,08,12,09,27,21.10
2016,08,12,09,28,21.20
2016,08,12,09,29,21.20
2016,08,12,09,30,21.30
2016,08,12,09,31,21.30
2016,08,12,09,32,21.30
2016,08,12,09,33,21.40
2016,08,12,09,34,21.50
2016,08,12,09,35,21.60
2016,08,12,09,36,21.70
2016,08,12,09,37,21.70
2016,08,12,09,38,21.70
2016,08,12,09,39,21.80
2016,08,12,09,40,21.80
2016,08,12,09,41,21.80
2016,08,12,09,42,21.80
2016,08,12,09,43,21.90
2016,08,12,09,44,21.90
2016,08,12,09,45,21.90
2016,08,12,09,46,22.00
2016,08,12,09,47,22.00
2016,08,12,09,48,22.10
2016,08,12,09,49,22.10
2016,08,12,09,50,22.20
2016,08,12,09,51,22.20
2016,08,12,09,52,22.30
2016,08,12,09,53,22.30
2016,08,12,09,54,22.40
2016,08,12,09,55,22.50
2016,08,12,09,56,22.50
2016,08,12,09,57,22.60
2016,08,12,09,58,22.70
2016,08,12,09,59,22.80
2016,08,12,10,00,22.90
2016,08,12,10,01,23.00
2016,08,12,10,02,23.10
2016,08,12,10,03,23.10
2016,08,12,10,04,23.10
2016,08,12,10,05,23.20
2016,08,12,10,06,23.20
2016,08,12,10,07,23.30
2016,08,12,10,08,23.30
2016,08,12,10,09,23.30
2016,08,12,10,10,23.40
2016,08,12,10,11,23.40
2016,08,12,10,12,23.50
2016,08,12,10,13,23.50
2016,08,12,10,14,23.50
2016,08,12,10,15,23.60
2016,08,12,10,16,23.60
2016,08,12,10,17,23.60
2016,08,12,10,18,23.60
2016,08,12,10,19,23.70
2016,08,12,10,20,23.70
2016,08,12,10,21,23.70
2016,08,12,10,22,23.70
2016,08,12,10,23,23.70
2016,08,12,10,24,23.70
2016,08,12,10,25,23.70
2016,08,12,10,26,23.70
2016,08,12,10,27,23.70
2016,08,12,10,28,23.70
2016,08,12,10,29,23.70
2016,08,12,10,30,23.80
2016,08,12,10,31,23.80
2016,08,12,10,32,23.90
2016,08,12,10,33,23.90
2016,08,12,10,34,24.00
2016,08,12,10,35,24.10
2016,08,12,10,36,24.00
2016,08,12,10,37,24.00
2016,08,12,10,38,24.00
2016,08,12,10,39,24.00
2016,08,12,10,40,24.00
2016,08,12,10,41,24.00
2016,08,12,10,42,23.90
2016,08,12,10,43,23.90
2016,08,12,10,44,23.90
2016,08,12,10,45,23.80
2016,08,12,10,46,23.80
2016,08,12,10,47,23.90
2016,08,12,10,48,23.90
2016,08,12,10,49,23.90
2016,08,12,10,50,24.00
2016,08,12,10,51,24.00
2016,08,12,10,52,24.10
2016,08,12,10,53,24.10
2016,08,12,10,54,24.20
2016,08,12,10,55,24.20
2016,08,12,10,56,24.20
2016,08,12,10,57,24.30
2016,08,12,10,58,24.30
2016,08,12,10,59,24.30
2016,08,12,11,00,24.30
2016,08,12,11,01,24.40
2016,08,12,11,02,24.40
2016,08,12,11,03,24.40
2016,08,12,11,04,24.50
2016,08,12,11,05,24.50
2016,08,12,11,06,24.60
2016,08,12,11,07,24.60
2016,08,12,11,08,24.70
2016,08,12,11,09,24.70
2016,08,12,11,10,24.80
2016,08,12,11,11,24.80
2016,08,12,11,12,24.80
2016,08,12,11,13,24.80
2016,08,12,11,14,24.80
2016,08,12,11,15,24.90
2016,08,12,11,16,24.80
2016,08,12,11,17,24.80
2016,08,12,11,18,24.80
2016,08,12,11,19,24.80
2016,08,12,11,20,24.80
2016,08,12,11,21,24.80
2016,08,12,11,22,24.80
2016,08,12,11,23,24.90
2016,08,12,11,24,25.00
2016,08,12,11,25,25.00
2016,08,12,11,26,25.00
2016,08,12,11,27,25.00
2016,08,12,11,28,25.00
2016,08,12,11,29,25.00
2016,08,12,11,30,25.00
2016,08,12,11,31,25.00
2016,08,12,11,32,25.00
2016,08,12,11,33,25.10
2016,08,12,11,34,25.10
2016,08,12,11,35,25.10
2016,08,12,11,36,25.10
2016,08,12,11,37,25.10
2016,08,12,11,38,25.20
2016,08,12,11,39,25.20
2016,08,12,11,40,25.30
2016,08,12,11,41,25.30
2016,08,12,11,42,25.40
2016,08,12,11,43,25.50
2016,08,12,11,44,25.60
2016,08,12,11,45,25.60
2016,08,12,11,46,25.60
2016,08,12,11,47,25.60
2016,08,12,11,48,25.70
2016,08,12,11,49,25.70
2016,08,12,11,50,25.70
2016,08,12,11,51,25.60
2016,08,12,11,52,25.50
2016,08,12,11,53,25.50
2016,08,12,11,54,25.40
2016,08,12,11,55,25.40
2016,08,12,11,56,25.50
2016,08,12,11,57,25.60
2016,08,12,11,58,25.60
2016,08,12,11,59,25.60
2016,08,12,12,00,25.50
2016,08,12,12,01,25.50
2016,08,12,12,02,25.50
2016,08,12,12,03,25.50
2016,08,12,12,04,25.50
2016,08,12,12,05,25.50
2016,08,12,12,06,25.40
2016,08,12,12,07,25.40
2016,08,12,12,08,25.50
2016,08,12,12,09,25.60
2016,08,12,12,10,25.60
2016,08,12,12,11,25.60
2016,08,12,12,12,25.60
2016,08,12,12,13,25.70
2016,08,12,12,14,25.70
2016,08,12,12,15,25.80
2016,08,12,12,16,25.90
2016,08,12,12,17,25.90
2016,08,12,12,18,26.00
2016,08,12,12,19,26.00
2016,08,12,12,20,26.10
2016,08,12,12,21,26.10
2016,08,12,12,22,26.20
2016,08,12,12,23,26.20
2016,08,12,12,24,26.30
2016,08,12,12,25,26.30
2016,08,12,12,26,26.30
2016,08,12,12,27,26.30
2016,08,12,12,28,26.40
2016,08,12,12,29,26.40
2016,08,12,12,30,26.40
2016,08,12,12,31,26.40
2016,08,12,12,32,26.50
2016,08,12,12,33,26.60
2016,08,12,12,34,26.70
2016,08,12,12,35,26.70
2016,08,12,12,36,26.80
2016,08,12,12,37,26.80
2016,08,12,12,38,26.80
2016,08,12,12,39,26.80
2016,08,12,12,40,26.80
2016,08,12,12,41,26.70
2016,08,12,12,42,26.70
2016,08,12,12,43,26.70
2016,08,12,12,44,26.80
2016,08,12,12,45,26.90
2016,08,12,12,46,26.90
2016,08,12,12,47,26.90
2016,08,12,12,48,27.00
2016,08,12,12,49,27.00
2016,08,12,12,50,27.00
2016,08,12,12,51,27.10
2016,08,12,12,52,27.20
2016,08,12,12,53,27.30
2016,08,12,12,54,27.30
2016,08,12,12,55,27.30
2016,08,12,12,56,27.30
2016,08,12,12,57,27.30
2016,08,12,12,58,27.30
2016,08,12,12,59,27.30
2016,08,12,13,00,27.40
2016,08,12,13,01,27.50
2016,08,12,13,02,27.60
2016,08,12,13,03,27.70
2016,08,12,13,04,27.70
2016,08,12,13,05,27.70
2016,08,12,13,06,27.70
2016,08,12,13,07,27.70
2016,08,12,13,08,27.60
2016,08,12,13,09,27.60
2016,08,12,13,10,27.50
2016,08,12,13,11,27.30
2016,08,12,13,12,27.20
2016,08,12,13,13,27.20
2016,08,12,13,14,27.20
2016,08,12,13,15,27.20
2016,08,12,13,16,27.30
2016,08,12,13,17,27.30
2016,08,12,13,18,27.40
2016,08,12,13,19,27.50
2016,08,12,13,20,27.60
2016,08,12,13,21,27.60
2016,08,12,13,22,27.60
2016,08,12,13,23,27.70
2016,08,12,13,24,27.70
2016,08,12,13,25,27.70
2016,08,12,13,26,27.70
2016,08,12,13,27,27.70
2016,08,12,13,28,27.70
2016,08,12,13,29,27.70
2016,08,12,13,30,27.60
2016,08,12,13,31,27.60
2016,08,12,13,32,27.60
2016,08,12,13,33,27.60
2016,08,12,13,34,27.60
2016,08,12,13,35,27.60
2016,08,12,13,36,27.70
2016,08,12,13,37,27.60
2016,08,12,13,38,27.60
2016,08,12,13,39,27.60
2016,08,12,13,40,27.60
2016,08,12,13,41,27.60
2016,08,12,13,42,27.50
2016,08,12,13,43,27.50
2016,08,12,13,44,27.50
2016,08,12,13,45,27.50
2016,08,12,13,46,27.50
2016,08,12,13,47,27.40
2016,08,12,13,48,27.40
2016,08,12,13,49,27.30
2016,08,12,13,50,27.30
2016,08,12,13,51,27.30
2016,08,12,13,52,27.30
2016,08,12,13,53,27.30
2016,08,12,13,54,27.30
2016,08,12,13,55,27.30
2016,08,12,13,56,27.30
2016,08,12,13,57,27.40
2016,08,12,13,58,27.40
2016,08,12,13,59,27.40
2016,08,12,14,00,27.40
2016,08,12,14,01,27.40
2016,08,12,14,02,27.40
2016,08,12,14,03,27.40
2016,08,12,14,04,27.40
2016,08,12,14,05,27.40
2016,08,12,14,06,27.50
2016,08,12,14,07,27.50
2016,08,12,14,08,27.50
2016,08,12,14,09,27.50
2016,08,12,14,10,27.50
2016,08,12,14,11,27.50
2016,08,12,14,12,27.60
2016,08,12,14,13,27.60
2016,08,12,14,14,27.60
2016,08,12,14,15,27.50
2016,08,12,14,16,27.50
2016,08,12,14,17,27.40
2016,08,12,14,18,27.40
2016,08,12,14,19,27.40
2016,08,12,14,20,27.30
2016,08,12,14,21,27.40
2016,08,12,14,22,27.40
2016,08,12,14,23,27.40
2016,08,12,14,24,27.40
2016,08,12,14,25,27.30
2016,08,12,14,26,27.30
2016,08,12,14,27,27.30
2016,08,12,14,28,27.30
2016,08,12,14,29,27.30
2016,08,12,14,30,27.30
2016,08,12,14,31,27.30
2016,08,12,14,32,27.30
2016,08,12,14,33,27.30
2016,08,12,14,34,27.30
2016,08,12,14,35,27.40
2016,08,12,14,36,27.40
2016,08,12,14,37,27.50
2016,08,12,14,38,27.50
2016,08,12,14,39,27.60
2016,08,12,14,40,27.60
2016,08,12,14,41,27.60
2016,08,12,14,42,27.60
2016,08,12,14,43,27.60
2016,08,12,14,44,27.60
2016,08,12,14,45,27.60
2016,08,12,14,46,27.60
2016,08,12,14,47,27.60
2016,08,12,14,48,27.60
2016,08,12,14,49,27.60
2016,08,12,14,50,27.50
2016,08,12,14,51,27.50
2016,08,12,14,52,27.50
2016,08,12,14,53,27.50
2016,08,12,14,54,27.50
2016,08,12,14,55,27.40
2016,08,12,14,56,27.40
2016,08,12,14,57,27.30
2016,08,12,14,58,27.30
2016,08,12,14,59,27.30
2016,08,12,15,00,27.30
2016,08,12,15,01,27.30
2016,08,12,15,02,27.30
2016,08,12,15,03,27.30
2016,08,12,15,04,27.30
2016,08,12,15,05,27.30
2016,08,12,15,06,27.20
2016,08,12,15,07,27.20
2016,08,12,15,08,27.20
2016,08,12,15,09,27.30
2016,08,12,15,10,27.30
2016,08,12,15,11,27.30
2016,08,12,15,12,27.30
2016,08,12,15,13,27.40
2016,08,12,15,14,27.40
2016,08,12,15,15,27.50
2016,08,12,15,16,27.60
2016,08,12,15,17,27.60
2016,08,12,15,18,27.70
2016,08,12,15,19,27.70
2016,08,12,15,20,27.70
2016,08,12,15,21,27.80
2016,08,12,15,22,27.80
2016,08,12,15,23,27.80
2016,08,12,15,24,27.80
2016,08,12,15,25,27.90
2016,08,12,15,26,27.90
2016,08,12,15,27,28.00
2016,08,12,15,28,28.10
2016,08,12,15,29,28.10
2016,08,12,15,30,28.10
2016,08,12,15,31,28.10
2016,08,12,15,32,28.00
2016,08,12,15,33,27.90
2016,08,12,15,34,27.80
2016,08,12,15,35,27.80
2016,08,12,15,36,27.80
2016,08,12,15,37,27.80
2016,08,12,15,38,27.90
2016,08,12,15,39,28.00
2016,08,12,15,40,28.00
2016,08,12,15,41,28.10
2016,08,12,15,42,28.10
2016,08,12,15,43,28.20
2016,08,12,15,44,28.20
2016,08,12,15,45,28.30
2016,08,12,15,46,28.30
2016,08,12,15,47,28.40
2016,08,12,15,48,28.50
2016,08,12,15,49,28.50
2016,08,12,15,50,28.60
2016,08,12,15,51,28.60
2016,08,12,15,52,28.60
2016,08,12,15,53,28.60
2016,08,12,15,54,28.70
2016,08,12,15,55,28.70
2016,08,12,15,56,28.70
2016,08,12,15,57,28.70
2016,08,12,15,58,28.70
2016,08,12,15,59,28.70
2016,08,12,16,00,28.70
2016,08,12,16,01,28.70
2016,08,12,16,02,28.70
2016,08,12,16,03,28.70
2016,08,12,16,04,28.70
2016,08,12,16,05,28.70
2016,08,12,16,06,28.70
2016,08,12,16,07,28.60
2016,08,12,16,08,28.60
2016,08,12,16,09,28.60
2016,08,12,16,10,28.60
2016,08,12,16,11,28.60
2016,08,12,16,12,28.50
2016,08,12,16,13,28.40
2016,08,12,16,14,28.40
2016,08,12,16,15,28.30
2016,08,12,16,16,28.30
2016,08,12,16,17,28.30
2016,08,12,16,18,28.30
2016,08,12,16,19,28.30
2016,08,12,16,20,28.30
2016,08,12,16,21,28.30
2016,08,12,16,22,28.30
2016,08,12,16,23,28.30
2016,08,12,16,24,28.30
2016,08,12,16,25,28.30
2016,08,12,16,26,28.30
2016,08,12,16,27,28.30
2016,08,12,16,28,28.30
2016,08,12,16,29,28.20
2016,08,12,16,30,28.20
2016,08,12,16,31,28.10
2016,08,12,16,32,28.00
2016,08,12,16,33,27.90
2016,08,12,16,34,27.90
2016,08,12,16,35,27.80
2016,08,12,16,36,27.80
2016,08,12,16,37,27.80
2016,08,12,16,38,27.80
2016,08,12,16,39,27.80
2016,08,12,16,40,27.70
2016,08,12,16,41,27.70
2016,08,12,16,42,27.70
2016,08,12,16,43,27.70
2016,08,12,16,44,27.70
2016,08,12,16,45,27.70
2016,08,12,16,46,27.70
2016,08,12,16,47,27.80
2016,08,12,16,48,27.80
2016,08,12,16,49,27.90
2016,08,12,16,50,28.00
2016,08,12,16,51,28.00
2016,08,12,16,52,28.10
2016,08,12,16,53,28.20
2016,08,12,16,54,28.20
2016,08,12,16,55,28.30
2016,08,12,16,56,28.30
2016,08,12,16,57,28.40
2016,08,12,16,58,28.40
2016,08,12,16,59,28.40
2016,08,12,17,00,28.40
2016,08,12,17,01,28.40
2016,08,12,17,02,28.40
2016,08,12,17,03,28.40
2016,08,12,17,04,28.40
2016,08,12,17,05,28.40
2016,08,12,17,06,28.40
2016,08,12,17,07,28.40
2016,08,12,17,08,28.50
2016,08,12,17,09,28.50
2016,08,12,17,10,28.50
2016,08,12,17,11,28.40
2016,08,12,17,12,28.40
2016,08,12,17,13,28.40
2016,08,12,17,14,28.40
2016,08,12,17,15,28.40
2016,08,12,17,16,28.40
2016,08,12,17,17,28.50
2016,08,12,17,18,28.50
2016,08,12,17,19,28.60